www.pogodaiklimat.ru

Погода и климат >> Архив погоды >> Казахстан >> Секисовка


ПОГОДА в Секисовке

  • Прогноз погоды в Секисовке
  • Монитор погоды в Секисовке
  • Климат города

АРХИВ ПОГОДЫ в Секисовке

Время (UTC), дата Ветер
(напр.,м/с)
 
Видим.   Явления Облачность Т
(С)
Тd
(С)
f
(%)
Тe
(С)
Тes
(С)
Комфортность P
(гПа)
Po
(гПа)
Тmin
(С)
Tmax
(С)
R
(мм)
S
(см)
09 16.03 ЮЗ 2 10 км н/о -5.9 -11.0 67 -10 -10 1029.3 974.0
12 16.03 ЮЗ 2 8000 м н/о -8.6 -12.4 74 -13 -13 1030.1 974.2
15 16.03 штиль 0 5000 м н/о -10.7 -18.4 53 -11 -11 1032.6 974.7 -3.6
18 16.03 штиль 0 5000 м н/о -13.4 -14.2 94 -13 -13 1031.8 974.8 -3.6 178
21 16.03 штиль 0 6000 м н/о -18.1 -19.5 89 -18 -18 1032.5 974.4
00 17.03 штиль 0 6000 м н/о -23.3 -25.3 84 -23 -23 1033.8 974.4
03 17.03 штиль 0 4000 м н/о -15.9 -17.8 85 -16 -16 1032.5 974.9 157
06 17.03 Ю 1 6000 м н/о -5.4 -14.2 50 -7 -7 1029.5 974.2 84
09 17.03 З 3 8000 м н/о -8.5 -13.2 69 -14 -14 1029.3 973.4
12 17.03 Ю 1 7000 м н/о -11.6 -15.3 74 -14 -14 1030.1 973.5
15 17.03 С 1 4300 м н/о -18.1 -19.3 90 -21 -21 1031.9 973.8 -5.4
18 17.03 штиль 0 5000 м н/о -22.0 -23.8 85 -22 -22 1032.1 973.1 -5.4 172
21 17.03 штиль 0 6000 м н/о -24.0 -26.1 83 -24 -24 1032.2 972.8
00 18.03 штиль 0 5000 м н/о -24.6 -26.9 81 -25 -25 1033.1 973.5
03 18.03 штиль 0 7000 м н/о -16.5 -18.7 83 -17 -17 1032.1 974.4 157
06 18.03 Ю 1 8000 м н/о -10.5 -17.0 59 -13 -13 1030.5 974.1 52
09 18.03 ЮЗ 2 8000 м н/о -8.7 -14.1 65 -13 -13 1029.6 973.7
12 18.03 З 1 5000 м н/о -12.3 -15.7 76 -15 -15 1031.3 974.5
15 18.03 Ю 1 5000 м н/о -17.3 -18.9 87 -20 -20 1032.9 974.9 -8.2
18 18.03 ЮЗ 1 6000 м н/о -18.7 -20.3 87 -22 -22 1032.6 974.3 -8.2 178
21 18.03 ЮЗ 1 6000 м н/о -22.5 -24.3 85 -26 -26 1033.4 974.2
00 19.03 Ю 1 2200 м н/о -17.3 -18.9 87 -20 -20 1032.1 974.2
03 19.03 штиль 0 7000 м н/о -13.3 -17.1 73 -13 -13 1032.0 975.0 157
06 19.03 СЗ 1 10 км н/о -8.7 -14.5 63 -11 -11 1031.2 975.2 69
09 19.03 ЮЗ 2 11 км н/о -9.5 -14.3 68 -14 -14 1031.3 975.1
12 19.03 З 2 8000 м н/о -12.1 -15.5 76 -17 -17 1033.5 976.6
15 19.03 штиль 0 4300 м н/о -16.8 -18.2 89 -17 -17 1035.7 977.7 -8.7
18 19.03 Ю 1 7000 м н/о -21.6 -23.3 86 -25 -25 1037.3 978.1 -8.7 154
21 19.03 Ю 1 7000 м н/о -20.7 -22.6 85 -24 -24 1037.3 978.3
00 20.03 С 1 6000 м н/о -20.3 -22.0 86 -23 -23 1037.6 978.7
03 20.03 штиль 0 4300 м н/о -15.5 -17.9 82 -16 -16 1037.2 979.4 157
06 20.03 Ю 1 7000 м н/о -8.0 -15.7 54 -10 -10 1034.7 978.6 76
09 20.03 ЮЗ 3 12 км н/о -8.9 -14.1 66 -15 -15 1033.7 977.5
12 20.03 З 1 6000 м н/о -11.3 -15.2 73 -14 -14 1034.0 977.3
15 20.03 штиль 0 5000 м н/о -19.7 -21.4 86 -20 -20 1036.0 977.3 -7.3
18 20.03 штиль 0 5000 м н/о -21.7 -23.4 86 -22 -22 1035.1 976.0 -7.3 168
21 20.03 ЮВ 1 6000 м н/о -22.8 -24.8 84 -26 -26 1034.2 974.9
00 21.03 штиль 0 6000 м н/о -25.4 -27.7 81 -25 -25 1034.7 974.8
03 21.03 штиль 0 7000 м н/о -17.1 -19.9 79 -17 -17 1032.4 974.5 157
06 21.03 З 2 6000 м н/о -11.3 -15.3 72 -16 -16 1029.4 972.9 43
09 21.03 ЮЗ 3 9000 м н/о -10.1 -15.1 67 -16 -16 1027.9 971.8
12 21.03 СЗ 1 6000 м н/о -12.9 -16.4 75 -15 -15 1028.4 971.6
15 21.03 Ю 1 3700 м н/о -21.8 -23.6 85 -25 -25 1031.3 972.4 -10.0
18 21.03 штиль 0 4600 м н/о -23.5 -25.5 84 -24 -24 1032.0 972.7 -10.0 163
21 21.03 штиль 0 5000 м н/о -25.5 -27.8 81 -26 -26 1033.4 973.5
00 22.03 штиль 0 5000 м н/о -26.5 -29.1 79 -27 -27 1035.2 975.0
03 22.03 штиль 0 2500 м н/о -16.4 -19.3 78 -16 -16 1034.6 976.7 156
06 22.03 штиль 0 7000 м н/о -7.1 -15.1 53 -7 -7 1032.6 976.8 42
09 22.03 З 2 7000 м н/о -7.0 -13.1 62 -11 -11 1033.0 977.2
12 22.03 З 1 6000 м н/о -9.8 -14.2 70 -12 -12 1034.4 978.0
15 22.03 штиль 0 3600 м н/о -18.5 -20.3 86 -19 -19 1037.5 979.0 -7.0
18 22.03 штиль 0 4700 м н/о -20.6 -22.2 87 -21 -21 1038.0 979.0 -7.0 182
21 22.03 Ю 1 5000 м н/о -23.7 -25.8 83 -27 -27 1039.0 979.2

 

Местоположение метеостанции Секисовка (Восточно-Казахстанская область, Казахстан): широта 50.33 долгота 82.59 высота над уровнем моря 455 м.

В архиве по умолчанию представлена погода в Секисовке за последнюю неделю. Архивные данные за месяц целиком и за предыдущие месяцы, начиная с января 2011 года, Вы можете получить, выбрав интересующий диапазон дат из раскрывающегося списка и нажав кнопку "Ввод!".

Внимание! Время в таблицах - всемирное. Для получения местного времени необходимо прибавить поправку, которая в Секисовке равна 5 ч.

Смотрите также архив погоды в соседних городах и на ближайших метеорологических станциях:

Погода в Белоусовке (Восточно-Казахстанская область, Казахстан) (22 км)
Погода в Глубоком (Восточно-Казахстанская область, Казахстан) (28 км)
Погода в Оскемен Согре (Восточно-Казахстанская область, Казахстан) (37 км)
Погода в Усть-Каменогорске (Восточно-Казахстанская область, Казахстан) (40 км)
Погода в Таврии (Восточно-Казахстанская область, Казахстан) (42 км)
Погода в Первомайском (Восточно-Казахстанская область, Казахстан) (42 км)
Погода в Кайсенова (Восточно-Казахстанская область, Казахстан) (51 км)
Погода в Шемонаихе (Восточно-Казахстанская область, Казахстан) (58 км)
Погода в Риддере (Восточно-Казахстанская область, Казахстан) (68 км)
Погода в Змеиногорске (Алтайский край, Россия) (96 км)

Пояснения к столбцам:

Ветер - указаны скорость ветра в м/с - средняя за 10 мин, порывы в срок и между сроками (в фигурных скобках) и направление, откуда дует ветер: С - северный, СВ - северо-восточный, В - восточный, ЮВ - юго-восточный, Ю - южный, ЮЗ - юго-западный, З - западный, СЗ - северо-западный.
Видимость - горизонтальная дальность видимости в метрах или километрах. При видимости от 1 до 10 км при отсутствии осадков обычно наблюдается дымка, при ухудшении видимости до 1 км и менее - туман. В сухую погоду видимость может ухудшаться дымом, пылью или мглою.
Явления - указаны атмосферные явления, наблюдавшиеся в срок или в последний час перед сроком; фигурными скобками обозначены явления, наблюдавшиеся между сроками (за 1-3 часа до срока); квадратными скобками обозначены град или гололедные отложения с указанием их диаметра в мм.
Облачность - указаны через наклонную черту общая и нижняя облачность в баллах и высота нижней границы облаков в метрах; квадратными скобками обозначены формы облаков: Ci - перистые, Cs - перисто-слоистые, Cc - перисто-кучевые, Ac - высококучевые, As - высокослоистые, Sc - слоисто-кучевые, Ns - слоисто-дождевые, Cu - кучевые, Cb - кучево-дождевые. Подробнее классификацию облаков см. в Атласе облаков (PDF).
T - Температура воздуха - температура, измеренная на высоте 2 м над землей.
Td - Температура точки росы - температура, при понижении до которой содержащийся в воздухе водяной пар достигнет насыщения.
f - Относительная влажность воздуха - влажноcть воздуха, измеренная на высоте 2 м над землей.
Te - Эффективная температура - температура, которую ощущает одетый по сезону человек в тени. Характеристика душности погоды. При расчете учитывается влияние влажности воздуха и скорости ветра на теплоощущения человека.
Tes - Эффективная температура на солнце - температура, которую ощущает человек, с поправкой на солнечный нагрев. Характеристика знойности погоды. Зависит от высоты солнца над горизонтом, облачности и скорости ветра. Ночью, в пасмурную погоду, а также при ветре 12 м/с и более поправка равна нулю.
P - Атмосферное давление - приведенное к уровню моря атмосферное давление.
Po - Атмосферное давление - измеренное на уровне метеостанции атмосферное давление.
Tmin - Минимальная температура - минимум температуры воздуха на высоте 2 м над землей.
Tmax - Максимальная температура - максимум температуры воздуха на высоте 2 м над землей.
R - Количество осадков - Количество выпавших осадков, мм. При наведении курсора мыши на число - период времени, за который выпало указанное количество осадков.
S - Снежный покров - Высота снежного покрова, см. При наведении курсора мыши на число - состояние снежного покрова и степень покрытия местности в баллах.